TimeMST,TemperatureF,Dew PointF,Humidity,Sea Level PressureIn,VisibilityMPH,Wind Direction,Wind SpeedMPH,Gust SpeedMPH,PrecipitationIn,Events,Conditions,WindDirDegrees,DateUTC
12:15 AM,24.8,14.0,64,30.33,10.0,Calm,Calm,-,N/A,,Clear,0,2012-11-13 07:15:00
12:35 AM,23.0,14.0,68,30.32,10.0,Calm,Calm,-,N/A,,Clear,0,2012-11-13 07:35:00
12:55 AM,23.0,14.0,68,30.32,10.0,Calm,Calm,-,N/A,,Clear,0,2012-11-13 07:55:00
1:15 AM,23.0,14.0,68,30.32,10.0,Calm,Calm,-,N/A,,Clear,0,2012-11-13 08:15:00
1:35 AM,23.0,14.0,68,30.32,10.0,Calm,Calm,-,N/A,,Clear,0,2012-11-13 08:35:00
1:55 AM,24.8,12.2,59,30.32,10.0,Calm,Calm,-,N/A,,Clear,0,2012-11-13 08:55:00
2:15 AM,24.8,10.4,54,30.32,10.0,Calm,Calm,-,N/A,,Clear,0,2012-11-13 09:15:00
2:35 AM,23.0,10.4,59,30.32,10.0,Calm,Calm,-,N/A,,Clear,0,2012-11-13 09:35:00
2:55 AM,24.8,10.4,54,30.32,10.0,Calm,Calm,-,N/A,,Clear,0,2012-11-13 09:55:00
3:15 AM,23.0,10.4,59,30.33,10.0,Calm,Calm,-,N/A,,Clear,0,2012-11-13 10:15:00
3:35 AM,19.4,12.2,74,30.32,10.0,Calm,Calm,-,N/A,,Clear,0,2012-11-13 10:35:00
3:55 AM,23.0,10.4,59,30.32,10.0,Calm,Calm,-,N/A,,Clear,0,2012-11-13 10:55:00
4:15 AM,21.2,10.4,63,30.31,10.0,Calm,Calm,-,N/A,,Clear,0,2012-11-13 11:15:00
4:35 AM,19.4,12.2,74,30.32,10.0,Calm,Calm,-,N/A,,Clear,0,2012-11-13 11:35:00
4:55 AM,17.6,12.2,79,30.33,10.0,Calm,Calm,-,N/A,,Clear,0,2012-11-13 11:55:00
5:15 AM,19.4,10.4,68,30.34,10.0,Calm,Calm,-,N/A,,Clear,0,2012-11-13 12:15:00
5:35 AM,17.6,10.4,73,30.34,10.0,Calm,Calm,-,N/A,,Clear,0,2012-11-13 12:35:00
5:55 AM,19.4,12.2,74,30.34,10.0,Calm,Calm,-,N/A,,Clear,0,2012-11-13 12:55:00
6:15 AM,19.4,10.4,68,30.34,10.0,ESE,3.5,-,N/A,,Clear,110,2012-11-13 13:15:00
6:35 AM,21.2,10.4,63,30.34,10.0,East,3.5,-,N/A,,Clear,90,2012-11-13 13:35:00
6:55 AM,19.4,10.4,68,30.34,10.0,Calm,Calm,-,N/A,,Clear,0,2012-11-13 13:55:00
7:15 AM,17.6,10.4,73,30.34,10.0,Calm,Calm,-,N/A,,Clear,0,2012-11-13 14:15:00
7:35 AM,19.4,14.0,80,30.35,10.0,Calm,Calm,-,N/A,,Clear,0,2012-11-13 14:35:00
7:55 AM,23.0,15.8,74,30.35,10.0,Calm,Calm,-,N/A,,Clear,0,2012-11-13 14:55:00
8:15 AM,26.6,15.8,64,30.35,10.0,Calm,Calm,-,N/A,,Clear,0,2012-11-13 15:15:00
8:35 AM,28.4,17.6,64,30.35,10.0,Calm,Calm,-,N/A,,Clear,0,2012-11-13 15:35:00
8:55 AM,30.2,15.8,55,30.35,10.0,Calm,Calm,-,N/A,,Clear,0,2012-11-13 15:55:00
9:15 AM,32.0,12.2,44,30.36,10.0,NNE,4.6,-,N/A,,Clear,20,2012-11-13 16:15:00
9:35 AM,33.8,12.2,41,30.36,10.0,North,6.9,-,N/A,,Clear,10,2012-11-13 16:35:00
9:55 AM,35.6,12.2,38,30.36,10.0,North,8.1,-,N/A,,Clear,10,2012-11-13 16:55:00
10:15 AM,35.6,14.0,41,30.36,10.0,North,6.9,-,N/A,,Clear,360,2012-11-13 17:15:00
10:35 AM,35.6,12.2,38,30.35,10.0,NNE,6.9,-,N/A,,Clear,20,2012-11-13 17:35:00
10:55 AM,37.4,14.0,38,30.34,10.0,NNE,6.9,-,N/A,,Clear,20,2012-11-13 17:55:00
11:15 AM,41.0,15.8,36,30.33,10.0,NNE,9.2,-,N/A,,Clear,20,2012-11-13 18:15:00
11:35 AM,41.0,15.8,36,30.33,10.0,North,9.2,-,N/A,,Clear,350,2012-11-13 18:35:00
11:55 AM,41.0,15.8,36,30.32,10.0,North,8.1,-,N/A,,Clear,10,2012-11-13 18:55:00
12:15 PM,44.6,15.8,31,30.31,10.0,NNE,8.1,-,N/A,,Clear,20,2012-11-13 19:15:00
12:35 PM,44.6,17.6,34,30.30,10.0,North,9.2,-,N/A,,Clear,350,2012-11-13 19:35:00
12:55 PM,46.4,17.6,32,30.30,10.0,North,10.4,-,N/A,,Clear,350,2012-11-13 19:55:00
1:15 PM,46.4,17.6,32,30.30,10.0,North,10.4,-,N/A,,Clear,360,2012-11-13 20:15:00
1:35 PM,48.2,15.8,27,30.29,10.0,North,8.1,-,N/A,,Clear,350,2012-11-13 20:35:00
1:55 PM,48.2,15.8,27,30.28,10.0,North,11.5,16.1,N/A,,Clear,360,2012-11-13 20:55:00
2:15 PM,50.0,15.8,26,30.27,10.0,North,9.2,-,N/A,,Clear,360,2012-11-13 21:15:00
2:35 PM,50.0,15.8,26,30.27,10.0,North,11.5,-,N/A,,Clear,10,2012-11-13 21:35:00
2:55 PM,50.0,15.8,26,30.27,10.0,North,11.5,-,N/A,,Clear,10,2012-11-13 21:55:00
3:15 PM,50.0,15.8,26,30.27,10.0,North,12.7,-,N/A,,Clear,360,2012-11-13 22:15:00
3:35 PM,50.0,14.0,24,30.27,10.0,North,11.5,-,N/A,,Clear,10,2012-11-13 22:35:00
3:55 PM,48.2,14.0,25,30.27,10.0,NNE,9.2,-,N/A,,Clear,20,2012-11-13 22:55:00
4:15 PM,48.2,14.0,25,30.28,10.0,North,8.1,-,N/A,,Clear,10,2012-11-13 23:15:00
4:35 PM,46.4,15.8,29,30.28,10.0,North,8.1,-,N/A,,Clear,360,2012-11-13 23:35:00
4:55 PM,44.6,15.8,31,30.28,10.0,North,6.9,-,N/A,,Clear,360,2012-11-13 23:55:00
5:15 PM,41.0,15.8,36,30.28,10.0,North,6.9,-,N/A,,Clear,350,2012-11-14 00:15:00
5:35 PM,39.2,15.8,39,30.29,10.0,North,6.9,-,N/A,,Clear,350,2012-11-14 00:35:00
5:55 PM,37.4,15.8,41,30.29,10.0,NNE,5.8,-,N/A,,Clear,20,2012-11-14 00:55:00
6:15 PM,35.6,15.8,44,30.30,10.0,NE,3.5,-,N/A,,Clear,50,2012-11-14 01:15:00
6:35 PM,33.8,15.8,48,30.31,10.0,Calm,Calm,-,N/A,,Clear,0,2012-11-14 01:35:00
6:55 PM,33.8,15.8,48,30.32,10.0,Calm,Calm,-,N/A,,Clear,0,2012-11-14 01:55:00
7:15 PM,33.8,15.8,48,30.32,10.0,Calm,Calm,-,N/A,,Clear,0,2012-11-14 02:15:00
7:35 PM,32.0,15.8,51,30.33,10.0,Calm,Calm,-,N/A,,Clear,0,2012-11-14 02:35:00
7:55 PM,32.0,15.8,51,30.33,10.0,Calm,Calm,-,N/A,,Clear,0,2012-11-14 02:55:00
8:15 PM,32.0,15.8,51,30.33,10.0,Calm,Calm,-,N/A,,Clear,0,2012-11-14 03:15:00
8:35 PM,28.4,17.6,64,30.34,10.0,East,3.5,-,N/A,,Clear,100,2012-11-14 03:35:00
8:55 PM,30.2,17.6,60,30.34,10.0,Calm,Calm,-,N/A,,Clear,0,2012-11-14 03:55:00
9:15 PM,30.2,17.6,60,30.34,10.0,Calm,Calm,-,N/A,,Clear,0,2012-11-14 04:15:00
9:35 PM,28.4,17.6,64,30.34,10.0,Calm,Calm,-,N/A,,Clear,0,2012-11-14 04:35:00
9:55 PM,28.4,15.8,59,30.34,10.0,Calm,Calm,-,N/A,,Clear,0,2012-11-14 04:55:00
10:15 PM,26.6,17.6,69,30.34,10.0,Calm,Calm,-,N/A,,Clear,0,2012-11-14 05:15:00
10:35 PM,28.4,17.6,64,30.33,10.0,Calm,Calm,-,N/A,,Clear,0,2012-11-14 05:35:00
10:55 PM,26.6,17.6,69,30.33,10.0,Calm,Calm,-,N/A,,Clear,0,2012-11-14 05:55:00
11:15 PM,24.8,17.6,74,30.32,10.0,Calm,Calm,-,N/A,,Clear,0,2012-11-14 06:15:00
11:35 PM,23.0,17.6,80,30.33,10.0,Calm,Calm,-,N/A,,Clear,0,2012-11-14 06:35:00
11:55 PM,24.8,17.6,74,30.33,10.0,Calm,Calm,-,N/A,,Clear,0,2012-11-14 06:55:00